(45) Eugenia
(45) Eugenia
Epoch 2008 Nov. 30.0 TT = JDT 2454800.5 Goffin
M 286.39382 (2000.0) P Q
n 0.21959009 Peri. 85.56224 -0.59156405 +0.80393681
a 2.7209938 Node 147.91915 -0.77784536 -0.54912175
e 0.0816442 Incl. 6.60987 -0.21215225 -0.22836573
P 4.49 H 7.46 G 0.07 U 0
From 1174 observations at 85 oppositions, 1857-2002, mean residual 0".56.
An explanation of the orbital
elements is available.These orbital elements are also available in forms suitable for loading into a number of popular planetarium-type software programs.
Personalized ephemerides for this object (and others) can be generated using the MPES.
Date TT R. A. (2000) Decl. Delta r Elong. Phase V 2009 01 31 12 10.74 +01 46.3 1.887 2.624 129.3 16.9 11.9 2009 02 05 12 10.57 +02 04.4 1.833 2.620 134.5 15.6 11.8 2009 02 10 12 09.77 +02 27.0 1.783 2.616 139.9 14.1 11.7 2009 02 15 12 08.35 +02 53.9 1.739 2.613 145.4 12.4 11.6 2009 02 20 12 06.35 +03 24.8 1.699 2.609 151.0 10.6 11.4 2009 02 25 12 03.78 +03 59.1 1.666 2.605 156.8 8.6 11.3 2009 03 02 12 00.74 +04 36.0 1.639 2.601 162.6 6.6 11.2 2009 03 07 11 57.30 +05 14.7 1.618 2.597 168.2 4.5 11.0 2009 03 12 11 53.58 +05 54.2 1.604 2.594 173.3 2.6 10.9 2009 03 17 11 49.69 +06 33.5 1.598 2.590 174.8 2.0 10.8 2009 03 22 11 45.76 +07 11.4 1.598 2.587 170.9 3.5 10.9 2009 03 27 11 41.92 +07 47.1 1.605 2.583 165.4 5.6 11.0 2009 04 01 11 38.30 +08 19.6 1.619 2.579 159.7 7.7 11.2 2009 04 06 11 35.01 +08 48.0 1.639 2.576 154.0 9.8 11.3 2009 04 11 11 32.16 +09 12.0 1.665 2.573 148.4 11.8 11.4 2009 04 16 11 29.82 +09 31.2 1.697 2.569 142.9 13.6 11.5 2009 04 21 11 28.04 +09 45.3 1.733 2.566 137.6 15.3 11.6 2009 04 26 11 26.86 +09 54.3 1.774 2.563 132.4 16.8 11.7 2009 05 01 11 26.31 +09 58.3 1.819 2.560 127.5 18.2 11.8